Location: Hertford
(51.8000°N, 0.0667°W)
Time: 05:44:16
(UTC+00:00)

Exosat Rocket - Pass Details

Date: 18 September 2020
Orbit: 761 x 2514 km, 72.3° (Epoch: 18 October)

Event Time Altitude Azimuth Distance (km) Brightness Sun altitude
Rises 20:59:34 0° 213° (SSW) 3,576 6.9 -25.3°
Reaches altitude 10° 21:02:13 10° 215° (SW) 2,495 6.1 -25.6°
Maximum altitude 21:07:37 71° 300° (WNW) 821 3.7 -26.3°
Drops below altitude 10° 21:12:37 10° 25° (NNE) 2,322 6.2 -26.8°
Sets 21:15:01 0° 28° (NNE) 3,308 7.0 -27.1°
